User: anonymous   Login
Location: Scultetus-Sternwarte G�rlitz
(51.1356°N, 14.9514°E)
Time: 07:23:23
(UTC+02:00)
Language:

Iridium 3 - Orbit

View from above orbital plane
View from above orbital plane
View from above satellite
View from above satellite

Ground track
Ground track

The orbit data is extracted from the following two-line orbital elements,

1 25431U 98048A   17083.93020323 -.00000036 +00000-0 -19856-4 0  9999
2 25431 086.3922 290.9346 0001831 083.1026 047.5700 14.34217716973269
Epoch (UTC): 24 March 2017 22:19:29
Eccentricity: 0.0001831
inclination: 86.3922°
perigee height: 776 km
apogee height: 779 km
right ascension of ascending node: 290.9346°
argument of perigee: 83.1026°
revolutions per day: 14.34217716
mean anomaly at epoch: 47.5700°
orbit number at epoch: 97326

The dashed part of the orbit path shows where the satellite is in the earth's shadow,  

DLR